Lapse_Rate
6.7 7.0 7.1 7.3 7.3 7.4 7.3 7.2 7.2 7.1 7.1 7.1 7.2 7.4 7.2 7.1 7.3 7.4 7.4 7.3 7.1 6.8 6.6 6.5 6.3 6.2 6.1 6.2 6.3 6.4 6.5 6.6 6.8 7.0 7.3 7.4 7.4 7.3 7.1 7.1 7.1 7.0 7.0 7.0
6.9 7.0 7.2 7.2 7.2 7.2 7.2 7.1 7.1 7.0 7.1 7.0 7.2 7.5 7.4 7.5 7.6 7.5 7.4 7.2 7.0 6.8 6.7 6.6 6.3 6.2 6.2 6.3 6.4 6.5 6.6 6.8 7.0 7.1 7.3 7.2 7.0 6.9 6.8 6.8 6.9 7.0 6.9 6.9
7.0 7.1 7.1 7.1 7.1 7.1 7.1 7.0 7.0 6.9 6.9 6.9 7.0 7.3 7.5 7.6 7.7 7.5 7.2 6.9 6.6 6.6 6.4 6.3 6.3 6.3 6.4 6.5 6.5 6.5 6.5 6.7 7.0 7.1 7.2 7.1 6.9 6.7 6.6 6.6 6.6 6.7 6.7 6.7
6.9 6.9 6.9 6.9 6.9 6.9 6.9 6.9 6.9 6.8 6.6 6.3 6.7 7.0 7.0 7.5 7.6 7.5 7.0 6.7 6.5 6.3 6.2 6.3 6.4 6.5 6.5 6.4 6.4 6.4 6.4 6.7 6.9 7.0 7.0 6.9 6.6 6.4 6.3 6.4 6.4 6.5 6.6 6.6
6.8 6.7 6.7 6.7 6.8 6.7 6.7 6.7 6.7 6.6 6.6 6.2 6.4 5.7 7.0 7.6 7.7 7.3 6.8 6.4 6.2 6.2 6.3 6.5 6.5 6.4 6.3 6.3 6.4 6.3 6.4 6.6 6.7 6.7 6.8 6.6 6.4 6.3 6.3 6.4 6.5 6.4 6.5 6.5
6.8 6.6 6.5 6.6 6.5 6.5 6.5 6.5 6.5 6.5 6.2 5.2 5.9 5.8 6.6 7.6 7.5 7.4 7.1 6.6 6.3 6.4 6.5 6.5 6.4 6.3 6.3 6.3 6.4 6.3 6.4 6.4 6.5 6.6 6.5 6.4 6.2 6.1 6.2 6.3 6.4 6.4 6.4 6.5
6.3 6.3 6.4 6.4 6.3 6.3 6.3 6.2 6.1 5.7 5.6 6.4 5.6 5.4 7.7 7.4 7.4 7.1 6.8 6.4 6.3 6.4 6.4 6.4 6.4 6.3 6.3 6.2 6.2 6.2 6.2 6.2 6.2 6.2 6.2 6.1 6.0 6.1 6.2 6.3 6.4 6.4 6.3 6.4
6.4 6.0 6.1 6.2 6.1 6.2 6.2 6.3 6.3 6.3 6.9 6.7 5.6 5.8 7.5 7.4 7.2 7.1 6.8 6.6 6.6 6.4 6.3 6.3 6.2 6.2 6.1 6.1 6.1 6.1 6.2 6.2 6.2 6.1 5.9 5.9 5.9 6.0 6.1 6.4 6.5 6.5 6.4 6.3
6.4 6.3 6.3 6.3 6.3 6.1 6.0 6.0 6.2 6.0 5.4 5.0 6.1 6.8 7.3 7.5 7.6 7.3 7.1 6.9 6.8 6.6 6.4 6.3 6.2 6.1 6.1 6.1 6.1 6.1 6.0 6.0 6.0 5.9 5.8 5.8 5.8 5.9 6.1 6.3 6.4 6.5 6.4 6.1
6.8 6.6 6.3 6.2 6.1 6.1 6.1 5.9 5.7 5.8 6.1 6.2 6.6 6.3 7.6 7.4 7.6 7.7 7.4 7.1 6.9 6.6 6.5 6.4 6.4 6.4 6.4 6.3 6.1 5.9 5.9 5.9 5.8 5.7 5.6 5.6 5.6 5.7 6.0 6.2 6.2 6.1 6.0 5.9
6.5 6.5 6.0 5.9 6.1 6.0 5.8 5.6 5.8 5.8 5.7 6.8 6.8 7.0 7.1 7.3 7.2 7.1 7.0 6.7 6.6 6.6 6.5 6.4 6.4 6.4 6.3 6.2 6.0 5.8 5.7 5.6 5.3 5.2 5.1 5.1 5.3 5.4 5.6 5.7 5.8 5.7 5.7 5.7
6.1 5.9 5.7 5.7 5.8 5.6 5.5 5.5 5.4 5.7 5.3 4.8 4.8 5.9 7.0 7.1 6.9 6.8 6.3 5.8 5.8 6.0 6.3 6.3 6.2 6.0 5.9 5.7 5.6 5.4 5.3 5.2 4.9 4.8 4.8 4.9 5.1 5.4 5.4 5.5 5.6 5.6 5.6 5.6
5.7 5.6 5.6 5.5 5.4 5.4 5.2 5.5 5.5 5.5 5.3 4.6 6.1 6.8 6.9 6.8 6.6 6.1 5.8 5.5 5.6 5.6 5.7 5.6 5.6 5.6 5.5 5.2 5.1 5.0 4.9 4.8 4.6 4.6 4.7 4.8 5.0 5.1 5.2 5.4 5.5 5.5 5.5 5.5
5.7 5.8 5.9 6.1 5.9 5.7 5.8 5.9 5.8 5.5 5.0 5.8 5.3 6.4 6.5 6.3 5.8 5.5 5.5 5.1 5.4 5.5 5.3 5.2 5.3 5.3 5.3 5.1 5.1 5.0 4.9 4.9 4.8 4.8 4.9 5.1 5.1 5.2 5.2 5.3 5.4 5.4 5.3 5.2
5.7 5.6 5.8 5.9 5.7 5.7 5.6 5.5 5.6 5.4 6.1 5.1 6.4 5.5 6.6 5.2 5.5 5.8 5.9 5.8 5.9 5.8 5.8 5.6 5.2 5.3 5.3 5.2 5.1 5.0 5.0 5.1 5.0 5.0 5.0 5.1 5.2 5.3 5.4 5.3 5.2 5.3 5.2 5.1
5.6 5.4 5.5 5.7 5.7 5.5 5.3 5.8 5.7 5.4 5.7 5.2 5.8 6.0 5.5 5.9 5.9 5.8 5.8 5.9 5.9 6.0 6.1 6.0 5.7 5.3 5.2 5.2 5.2 5.2 5.3 5.1 5.0 5.1 5.1 5.2 5.2 5.2 5.2 5.1 4.9 4.7 4.5 4.3
5.1 5.0 4.8 4.6 5.2 5.1 5.2 6.4 6.0 6.0 5.8 5.6 5.1 5.3 5.9 6.2 5.8 6.0 6.1 6.0 6.1 6.0 6.0 6.0 5.9 5.8 5.5 5.3 5.1 5.0 5.0 5.0 5.2 5.3 5.3 5.2 5.2 5.3 5.3 5.3 5.1 4.8 4.5 4.2
4.8 4.7 4.5 4.4 4.7 4.9 5.7 5.7 5.6 5.5 5.7 5.8 5.7 5.6 5.6 5.8 5.9 6.2 6.2 6.1 6.2 6.2 6.0 5.9 5.9 5.8 5.4 5.2 5.1 5.2 5.1 5.2 5.2 5.1 5.0 5.0 5.0 4.9 4.9 4.8 4.7 4.6 4.5 4.3
4.8 4.5 4.2 4.4 4.2 5.1 6.0 5.8 5.7 5.9 5.5 5.5 5.8 5.9 5.9 5.8 5.6 5.6 5.5 5.6 5.6 5.6 5.6 5.7 5.7 5.7 5.7 5.5 5.4 5.3 5.3 5.3 5.2 5.0 5.1 4.9 4.8 4.8 4.8 4.7 4.4 4.2 4.0 4.0
5.3 4.7 4.0 3.8 4.0 5.0 4.8 5.3 5.4 5.5 4.6 5.3 5.4 5.3 5.4 5.4 5.3 5.3 5.3 5.4 5.3 5.3 5.4 5.5 5.7 5.8 5.7 5.6 5.5 5.5 5.3 5.0 4.8 4.7 4.7 4.6 4.6 4.6 4.5 4.4 4.4 4.3 4.1 3.9
5.5 5.1 4.2 4.0 4.0 4.2 4.9 5.0 5.1 4.8 5.2 5.3 5.3 5.1 4.9 4.8 4.8 5.1 5.4 5.4 5.4 5.6 5.6 5.6 5.7 5.7 5.5 5.6 5.4 5.2 5.0 4.9 4.8 4.9 4.8 4.9 4.9 4.7 4.4 4.2 4.1 4.1 4.0 4.0
5.3 5.5 5.1 4.3 4.1 4.3 5.0 5.1 5.2 5.4 5.0 4.9 4.9 4.8 4.8 5.0 5.4 5.6 5.8 5.8 5.8 5.8 5.7 5.6 5.4 5.2 5.1 4.9 5.0 4.9 5.0 4.9 4.9 4.8 4.8 4.6 4.6 4.5 4.4 4.3 4.3 4.3 4.1 4.1
4.7 5.1 5.5 5.1 5.1 5.2 5.2 5.1 5.0 5.0 4.9 5.0 4.9 5.2 5.5 5.8 5.7 5.6 5.6 5.7 5.7 5.7 5.7 5.6 5.6 5.5 5.3 5.3 5.2 5.2 5.1 4.8 4.7 4.5 4.4 4.3 4.3 4.5 4.4 4.3 4.3 4.3 4.3 4.2
4.4 4.6 4.4 4.6 4.7 4.9 4.8 4.8 4.7 4.8 4.8 5.0 5.2 5.5 5.4 5.4 5.3 5.1 5.2 5.3 5.3 5.4 5.5 5.6 5.5 5.4 5.3 5.3 5.2 5.1 5.2 5.0 4.9 4.7 4.5 4.3 4.2 4.2 4.3 4.4 4.5 4.6 4.8 4.9
4.1 4.2 4.5 4.6 4.8 5.2 5.0 4.8 4.9 5.1 5.3 5.6 5.8 5.5 5.3 5.2 5.1 5.1 5.1 5.0 5.0 5.0 5.1 5.1 5.0 5.0 5.2 5.2 5.2 5.3 5.5 5.3 5.0 4.8 4.7 4.6 4.7 4.6 4.7 4.9 5.0 5.2 5.2 5.2
4.4 4.8 4.7 4.7 4.8 4.8 5.0 5.1 5.6 5.8 5.7 5.6 5.4 5.3 5.2 5.0 4.8 4.8 4.9 4.9 4.8 4.8 4.9 4.9 5.0 4.9 5.1 5.3 5.3 5.4 5.6 5.5 5.3 5.0 5.2 5.2 5.2 5.1 5.1 5.1 5.1 5.3 5.2 5.3
Wind_Speed
2 4 6 6 3 4 6 4 2 2 2 5 4 9 13 10 7 6 3 1 5 7 5 7 7 6 5 3 2 1 2 3 3 3 4 3 4 4 3 4 5 5 6 6
2 6 4 5 4 6 4 3 1 1 0 4 6 17 9 5 2 1 1 3 6 8 8 7 7 5 3 2 3 3 3 4 3 3 2 2 4 3 4 5 5 6 6 7
4 6 2 2 4 5 4 1 1 2 6 1 10 7 4 3 3 3 2 3 6 8 9 8 7 5 4 4 5 5 5 4 4 3 3 3 3 4 3 4 5 5 9 8
8 2 3 5 5 3 3 2 2 2 4 3 5 6 4 5 5 5 6 7 8 8 6 6 6 6 6 6 5 5 5 6 5 4 3 5 4 5 5 6 6 7 9 9
2 2 3 4 3 3 4 2 3 2 1 3 1 3 2 2 8 10 9 8 7 6 6 6 6 7 6 5 4 4 5 6 6 6 5 4 6 5 6 6 9 8 7 8
5 2 4 3 4 5 9 3 2 2 1 3 2 2 3 3 2 9 10 9 8 7 6 7 7 6 5 4 4 5 5 6 6 6 6 6 6 7 7 7 7 7 7 6
2 3 2 1 3 3 1 1 1 2 1 3 2 2 8 1 1 1 11 11 8 7 8 8 8 6 5 4 4 4 5 5 6 6 6 6 7 7 7 8 7 9 7 7
4 2 2 3 2 1 2 1 2 4 3 2 2 6 1 2 0 1 3 8 8 8 8 8 6 5 5 3 2 3 5 5 6 6 7 6 7 5 5 6 6 6 6 7
3 3 1 3 0 2 4 3 1 3 1 3 2 5 5 2 3 3 7 10 11 11 10 9 8 6 5 3 2 3 4 5 5 6 6 6 6 6 6 8 7 6 7 6
3 4 1 2 1 5 2 5 2 1 3 4 4 5 3 2 5 6 9 12 11 11 11 10 8 7 5 3 1 1 2 3 4 5 5 5 6 6 6 6 7 7 7 7
1 2 3 2 6 4 4 3 1 2 3 3 4 2 3 4 2 7 9 11 12 12 12 11 10 7 5 3 2 1 2 3 4 5 5 5 5 6 6 5 6 7 7 7
2 1 3 2 2 3 3 2 4 3 4 1 3 6 2 4 5 5 8 10 11 13 13 12 11 8 6 3 1 2 2 3 4 5 5 5 5 6 6 6 6 7 7 7
3 1 2 3 2 1 4 4 3 2 2 6 4 2 1 3 3 3 8 10 10 10 11 10 10 8 5 2 2 2 2 3 4 4 5 5 6 7 7 8 8 7 8 8
1 2 3 2 2 3 4 7 10 8 4 6 12 18 10 5 8 11 9 7 9 9 10 10 9 7 4 3 3 3 2 2 3 4 5 6 6 7 7 8 8 8 8 8
1 3 1 6 7 6 8 9 13 14 17 10 17 10 16 14 16 12 11 11 11 11 11 10 9 7 6 5 5 4 3 3 3 5 6 6 7 7 8 8 8 8 8 7
1 2 2 4 2 7 9 15 16 19 20 19 21 25 11 5 9 10 9 10 10 9 11 11 10 9 8 6 5 3 3 3 4 5 6 6 6 7 7 7 8 8 8 8
4 4 3 3 1 6 11 13 14 8 8 12 14 6 9 13 11 10 12 11 12 9 7 10 11 10 7 5 4 4 4 3 5 6 6 6 7 8 8 8 9 9 9 9
4 3 2 3 3 5 3 2 3 8 1 7 10 9 8 9 8 7 10 12 13 10 6 6 6 5 5 4 4 4 4 6 6 6 6 6 7 9 9 9 9 9 8 9
3 3 3 4 4 9 6 3 2 2 3 5 5 7 9 11 3 4 13 13 12 11 8 5 4 5 5 5 5 6 7 6 5 7 8 8 8 10 10 10 10 9 9 10
3 1 5 2 4 5 4 1 3 1 4 4 6 8 10 11 6 6 15 15 14 14 9 6 5 5 6 6 5 7 7 6 7 8 9 9 9 10 11 12 12 10 9 11
4 4 11 10 6 7 1 4 4 5 3 2 6 9 10 9 9 16 15 13 13 11 9 6 7 7 7 5 4 6 7 9 8 8 9 10 10 10 11 12 11 11 11 11
6 7 5 5 6 8 4 2 3 4 3 6 7 9 11 12 12 11 11 11 10 10 9 8 8 8 5 3 4 7 9 9 8 9 10 11 12 9 9 11 12 12 12 13
5 5 3 8 3 5 8 9 6 7 5 7 9 11 11 12 11 11 10 9 10 11 10 7 6 6 7 6 5 8 11 9 9 10 12 12 12 11 11 11 11 10 12 11
5 3 4 3 1 4 6 7 3 4 7 6 4 6 8 9 11 11 12 12 11 10 9 7 7 8 9 8 8 9 11 9 9 11 12 12 12 13 13 10 9 9 11 11
2 5 4 3 4 4 3 2 2 1 1 3 4 5 7 8 10 10 11 13 12 12 10 8 8 8 10 10 11 12 12 11 11 12 12 12 11 13 12 12 11 11 13 12
5 9 5 3 6 3 3 4 5 2 3 3 4 7 8 8 11 12 12 13 13 13 13 11 12 12 12 12 12 13 12 11 12 12 11 10 10 10 10 11 11 16 19 25
Wind_Direction
28 100 122 106 58 79 102 110 143 111 37 307 270 276 276 287 265 256 276 284 158 154 118 133 130 130 134 136 138 17 339 355 328 334 338 337 348 333 320 330 321 309 320 313
109 94 98 98 95 98 92 131 133 192 308 303 309 290 287 238 216 257 167 130 144 139 136 137 137 139 125 90 56 31 16 351 350 334 342 311 322 311 312 312 314 315 311 306
92 104 132 133 108 121 63 50 100 321 315 233 308 257 191 170 170 146 147 120 135 145 144 146 145 126 111 74 52 51 37 16 14 355 320 310 284 271 292 333 324 328 308 299
73 62 129 111 86 325 158 88 96 350 315 290 352 293 217 192 197 198 171 167 154 148 143 141 139 108 92 79 73 67 58 41 28 13 355 344 327 321 325 317 313 314 309 300
69 100 99 86 45 337 94 111 70 22 338 315 138 252 229 170 219 206 188 175 168 154 149 133 115 104 91 80 66 60 54 43 31 26 15 349 333 323 318 316 320 327 329 321
86 61 34 68 64 64 133 122 86 97 333 243 54 283 263 199 242 191 185 179 167 152 131 119 117 120 108 88 65 50 41 37 27 20 13 359 340 332 329 335 331 336 330 332
81 36 57 46 114 114 202 62 301 284 222 280 152 258 266 267 224 252 188 180 169 156 155 150 145 129 103 81 58 42 28 27 14 10 3 355 345 334 330 335 332 329 331 334
156 180 16 9 19 28 98 275 257 268 265 340 149 241 243 37 306 319 211 171 160 165 164 160 148 141 141 126 77 39 22 14 6 358 352 347 346 337 331 334 327 322 325 328
144 116 95 48 39 304 143 202 45 109 97 266 248 261 214 315 192 193 176 175 180 179 175 169 170 171 162 152 93 27 12 3 356 345 339 341 340 338 334 332 331 332 326 326
162 119 197 126 192 62 296 129 155 183 258 256 228 271 248 357 213 194 188 195 190 187 185 184 183 177 177 175 154 39 359 335 333 334 336 335 338 343 340 340 342 338 335 335
153 267 134 205 204 183 153 193 159 320 259 266 294 240 188 228 275 227 212 205 199 199 198 196 193 187 185 190 190 324 321 329 336 338 340 339 343 344 341 339 339 342 337 341
41 38 150 80 56 358 327 286 227 248 192 254 323 282 158 270 284 268 235 218 213 212 207 205 199 195 198 204 223 303 322 324 340 340 330 327 324 328 325 331 337 339 341 343
169 176 169 165 152 129 240 197 213 107 9 218 257 256 230 284 281 236 247 236 226 224 216 209 203 206 207 212 246 281 317 325 324 318 315 314 321 323 323 325 328 330 328 329
181 149 250 282 85 114 202 198 208 207 204 232 230 267 248 252 297 308 294 272 268 240 222 214 209 208 203 215 234 243 257 288 311 310 308 304 311 315 316 314 315 319 324 323
214 255 211 281 253 235 255 240 208 209 228 235 274 259 288 316 316 321 306 301 289 251 227 218 214 207 207 222 232 241 265 297 312 304 302 304 311 313 313 314 317 318 318 319
205 219 154 272 240 226 254 247 242 237 248 251 268 277 314 345 334 338 340 339 319 288 244 217 203 206 213 228 244 250 261 273 287 293 292 294 297 301 302 306 312 312 311 312
184 184 188 250 259 289 266 243 213 219 226 235 252 285 340 332 339 346 345 347 338 320 273 221 208 209 215 230 252 264 283 292 281 280 286 288 292 294 299 305 307 307 309 310
177 193 222 286 284 242 56 100 207 214 73 236 274 321 360 343 343 42 25 6 1 354 323 248 227 232 238 257 256 270 263 258 260 272 286 289 287 290 296 298 299 302 305 303
259 214 254 267 247 321 285 52 29 223 103 26 77 42 18 358 278 100 14 0 349 340 322 284 264 269 263 276 282 260 258 263 279 291 292 289 287 291 295 294 296 297 296 294
177 264 231 164 259 267 80 141 316 241 226 88 69 30 7 355 348 335 340 333 325 323 310 276 279 288 285 288 271 256 268 275 279 290 290 287 280 280 285 287 286 287 282 287
154 196 222 233 259 271 40 306 314 246 43 57 17 2 348 335 314 306 313 316 320 319 322 321 309 301 304 312 284 277 287 279 290 294 289 282 277 276 278 282 281 282 283 284
194 181 195 202 234 258 6 147 245 54 61 3 344 324 303 291 300 307 317 327 337 337 330 325 312 308 315 300 279 284 281 286 292 284 282 282 283 280 275 274 276 277 274 277
244 234 209 206 243 95 65 97 73 39 346 315 296 307 316 309 319 330 327 327 321 315 312 311 302 304 304 297 280 280 282 296 296 292 288 287 287 283 280 276 279 282 283 282
217 194 238 229 177 166 82 59 33 271 275 320 339 333 334 326 325 322 320 318 313 309 303 300 295 293 293 298 291 279 287 292 289 284 283 285 285 288 289 286 276 274 280 283
290 173 231 252 141 140 150 189 220 275 329 329 328 317 310 313 314 317 313 308 307 303 295 281 272 275 280 287 285 285 282 280 275 277 279 279 280 281 284 281 280 278 274 269
197 246 242 278 170 233 248 189 189 224 274 291 295 311 316 311 306 311 305 306 304 300 298 284 272 268 277 286 284 282 282 269 271 278 282 281 280 277 275 277 280 265 260 271